Regional Weather Roundup
Issued by NWS

Home | Current Version | Previous Version | Text Only | Print | Product List | Glossary On
Versions: 1 2 3 4 5 6 7 8 9 10 11 12 13 14 15 16 17 18 19 20 21 22 23 24 25 26 27 28 29 30 31 32 33 34 35 36 37 38 39 40 41 42 43 44 45 46 47 48 49 50
216
ASUS44 KJAN 240603
RWRMS

MISSISSIPPI HOURLY WEATHER ROUNDUP
NATIONAL WEATHER SERVICE JACKSON MS
100 AM CDT FRI OCT 24 2014

NOTE: "FAIR: INDICATES FEW OR NO CLOUDS BELOW 12,000 FEET WITH NO
SIGNIFICANT WEATHER AND/OR OBSTRUCTIONS TO VISIBILITY.

MSZ001>002-007>008-010>013-018>021-025>028-034>036-240700-
NORTHWEST MISSISSIPPI

CITY           SKY/WX    TMP DP  RH WIND       PRES   REMARKS
CLARKSDALE     FAIR      48  48 100 N6        30.14S
CLEVELAND      FAIR      46  46  99 NW5       30.13R
GREENWOOD      FOG       45  44  97 N5        30.12S VSB 1
6HR MIN TEMP:  43; 6HR MAX TEMP:  57;

GREENVILLE     CLEAR     47  45  93 CALM      30.12S
6HR MIN TEMP:  45; 6HR MAX TEMP:  56;

GRENADA          N/A    N/A N/A N/A MISG        N/A
OLIVE BRANCH   CLOUDY    52  50  93 CALM      30.13F
OXFORD         FAIR      48  46  93 N5        30.15R
TUNICA         PTCLDY    48  46  93 CALM      30.14S
$$

MSZ003>006-009-014>017-022>024-029>033-037>039-240700-
NORTHEAST MISSISSIPPI

CITY           SKY/WX    TMP DP  RH WIND       PRES   REMARKS
COLUMBUS AFB   CLOUDY    54  50  86 W2        30.10F
6HR MIN TEMP:  53; 6HR MAX TEMP:  56;

CORINTH        FAIR      50  46  87 W5        30.10F
GOLDN TRIANGLE CLOUDY    54  46  76 NW6       30.10S
STARKVILLE     FAIR      52  50  93 CALM      30.10F
TUPELO         MOCLDY    52  47  83 CALM      30.09F
6HR MIN TEMP:  51; 6HR MAX TEMP:  59;

$$

MSZ040-058-240700-
CENTRAL MISSISSIPPI

CITY           SKY/WX    TMP DP  RH WIND       PRES   REMARKS
JACKSON INTL   CLEAR     48  46  93 CALM      30.11S
6HR MIN TEMP:  47; 6HR MAX TEMP:  59;

JACKSON HAWKNS CLEAR     50  47  89 CALM      30.11F
6HR MIN TEMP:  50; 6HR MAX TEMP:  61;

MERIDIAN KEY   PTCLDY    49  46  90 CALM      30.10F
6HR MIN TEMP:  49; 6HR MAX TEMP:  59;

MERIDIAN NAS   MOCLDY    50  47  89 CALM      30.09F
6HR MIN TEMP:  50; 6HR MAX TEMP:  60;

RAYMOND        HAZE      45  39  81 CALM      30.11S VSB 1/4
VICKSBURG      CLEAR     46  44  93 N3        30.12S
6HR MIN TEMP:  44; 6HR MAX TEMP:  58;

$$

MSZ059>079-240700-
SOUTH MISSISSIPPI

CITY           SKY/WX    TMP DP  RH WIND       PRES   REMARKS
BROOKHAVEN     FAIR      50  48  93 CALM      30.12S
COLUMBIA         N/A    N/A N/A N/A MISG        N/A
HATTIESBURG    PTCLDY    54  49  83 CALM      30.10S
6HR MIN TEMP:  53; 6HR MAX TEMP:  63;

MCCOMB         CLEAR     54  48  80 N7        30.10S
6HR MIN TEMP:  54; 6HR MAX TEMP:  63;

NATCHEZ        CLEAR     48  45  87 CALM      30.12R
6HR MIN TEMP:  46; 6HR MAX TEMP:  59;

PINE BELT      PTCLDY    52  45  76 N5        30.10F
6HR MIN TEMP:  52; 6HR MAX TEMP:  61;

$$

MSZ080>082-240700-
COASTAL MISSISSIPPI

CITY           SKY/WX    TMP DP  RH WIND       PRES   REMARKS
BILOXI         PTCLDY    59  48  66 VRB6      30.06F
6HR MIN TEMP:  59; 6HR MAX TEMP:  68;

PASCAGOULA     PTCLDY    51  49  92 CALM      30.06F
6HR MIN TEMP:  50; 6HR MAX TEMP:  59;

GULFPORT       PTCLDY    59  46  62 N5        30.06F
6HR MIN TEMP:  58; 6HR MAX TEMP:  66;

$$



USA.gov is the U.S. government's official web portal to all federal, state and local government web resources and services.